Погода в Городище

Россия / Пензенская область     53°16′21″N   45°42′09″E
темп.,
°C
ветер,
м/с
пор.,
м/с
влажн.,
%
обл.,
%
осадки,
мм/ч
давл.,
гПа
погр.,
м
18 августа, чт
чт1800:00+20в61339100 0.0 1018289
03:00+20в41039100 0.0 1018269
06:00+19всв51145100 0.0 1018291
09:00+23в61146100 0.0 1018578
12:00+27в7931100 0.0 10171435
15:00+28вюв6832100 0.0 10181806
18:00+23в51143100 0.0 1018548
21:00+21в51238100 0.0 1019549
19 августа, пт
пт1900:00+20в71447100 0.0 1020812
03:00+17вюв71471100 1.8 1021446
06:00+16в51155100 0.5 1023416
09:00+20в71341100 0.5 1024750
12:00+21в71135100 0.0 1025962
15:00+25вюв6928100 0.0 10251824
18:00+23в61036100 0.0 1025891
21:00+21вюв71436100 0.0 1027696
20 августа, сб
сб2000:00+19вюв61429100 0.0 1028568
03:00+17вюв51332100 0.0 1029412
06:00+15вюв5133994 0.0 1030391
09:00+21вюв692997 0.0 1030879
12:00+25вюв672194 0.0 10291548
15:00+25вюв5621100 0.0 10281677
18:00+21вюв243398 0.0 102879
21:00+15в224199 0.0 102816
21 августа, вс
вс2100:00+14в344554 0.0 102846
03:00+13в344910 0.0 102959
06:00+14в36535 0.0 1029102
09:00+23вюв46385 0.0 1028703
12:00+27вюв56295 0.0 10262069
15:00+28вюв56303 0.0 10252425
18:00+25вюв24414 0.0 1025113
21:00+20всв375322 0.0 1025128
22 августа, пн
пн2200:00+18всв412622 0.0 1025217
03:00+17в310661 0.0 1026170
06:00+18в39670 0.0 1026185
09:00+26в57420 0.0 10261014
12:00+29в563148 0.0 10252787
15:00+27всв673989 0.0 10251096
18:00+26всв354141 0.0 1025189
21:00+19всв410415 0.0 1026169